NOAA 16 DEB, 41427

Orbit data source: Space-Track

NOAA 16 DEB, 41427 is space debris in SSO originally from a launch on Thu, 21 Sep 2000 UTC launched from the Air Force Western Test Range (AFWTR). Debris objects in space refer to the collection of defunct objects orbiting the Earth. Examples of debris include non-operational satellites, rocket bodies, and fragments generated from explosions, collisions, or faulty payload assembly.

Loading next visibility...
Identifier
41427, 2000-055LG
Orbit
SSO
Country
Flag of USUS
Related business
Manufacturer
Unknown
Mission
Spacecraft
Bus & Motor
Unknown
Mass
Unknown
Launch date (UTC)
2000-09-21 (25 years ago)
Launch vehicle
Unknown
Launch site
Air Force Western Test Range (AFWTR)
Object type
Payload
Rocket body
Debris
Shape & HBR
Unknown shape, 0.1 m
Radar Cross Section
Small (<0.1 m²)

Expand to show TLE details & history
Last TLE update: 8 hours ago

TLE from 8 hours ago
0 NOAA 16 DEB
1 41427U 00055LG  25355.53355222  .00010817  00000-0  33236-2 0  9991
2 41427  98.9245 106.3988 0024052 306.7218  53.1760 14.41585788506129
Epoch: 2025-12-21T12:48Z
TLE epoch observation values (Epoch: 2025-12-21T12:48:18.911Z)
Latitude
-0.00009°
Longitude
-176.02461°
Altitude
745.945 km
Speed
7.487 km/s
True Right ascension
07h 05m 35s
True Declination
0° 00' 00"
Sunlit
Object was in full shadow at epoch
Visualization orbit readout
Latitude
Unknown
Longitude
Unknown
Altitude
Unknown
Speed
Unknown
Apparent Right ascension
Unknown
Apparent Declination
Unknown
Sunlit
N/A
Visualization observer readout
Local Sidereal Time
20:11:01
Azimuth
Unknown
Elevation
Unknown
Doppler factor
Unknown
Orbital elements
Apogee altitude
767.55 km
Perigee altitude
733.259 km
Semi-major axis
7,128.541 km
Eccentricity
0.00241
Inclination
98.9245°
RAAN
106.3988°
Arg. of periapsis
306.7218°
True anomaly
53.39702°
Mean anomaly
53.176°
Eccentric anomaly
53.28647°
Mean motion
3.60614 °/min
Orbital period
99.83 mins
BSTAR
0.0033236
Loading maneuver chart data...
Computing Atmospheric mass density...
Loading historical data...
Loading historical data...
Loading historical data...
Loading historical data...
Loading historical data...
Loading historical data...
Loading historical data...

Documentation

Showing up to 5 results
|